Location: Poughquag
(41.6090°N, 73.6820°W)
Time: 04:08:18
(UTC-04:00)

ISS - Pass Details

Date: 30 June 2022
Orbit: 412 x 420 km, 51.6° (Epoch: 11 August)

Event Time Altitude Azimuth Distance (km) Brightness Sun altitude
Exits shadow 02:54:29 47° 125° (SE) 579 -3.2 -19.9°
Drops below altitude 10° 02:57:37 10° 64° (ENE) 1,542 -0.1 -19.6°
Enters shadow 03:52:26 -72° 237° (WSW) 12,541 3.6 -13.7°
